| time (UTC) | temp F | wind direction | speed knots | gust knots | rain 1hr in | rain 24hr in | rain mn in | humidity % | barometer mb |
| 20260903231253 | 96 | 351 | 3.5 | 9.6 | 0.00 | 0.00 | 0.00 | 27 | 1008.8 |
| 20260903230748 | 96 | 350 | 3.5 | 12.2 | 0.00 | 0.00 | 0.00 | 27 | 1008.9 |
| 20260903230248 | 95 | 352 | 6.1 | 11.3 | 0.00 | 0.00 | 0.00 | 28 | 1008.9 |
| 20260903225744 | 97 | 353 | 5.2 | 9.6 | 0.00 | 0.00 | 0.00 | 27 | 1009.1 |
| 20260903225241 | 96 | 348 | 5.2 | 14.8 | 0.00 | 0.00 | 0.00 | 28 | 1009.0 |
| 20260903224737 | 100 | 294 | 0.0 | 4.3 | 0.00 | 0.00 | 0.00 | 26 | 1008.9 |
| 20260903224233 | 102 | 4 | 0.0 | 3.5 | 0.00 | 0.00 | 0.00 | 23 | 1008.8 |
| 20260903223728 | 102 | 79 | 0.0 | 2.6 | 0.00 | 0.00 | 0.00 | 22 | 1009.1 |
| 20260903223226 | 101 | 301 | 1.7 | 4.3 | 0.00 | 0.00 | 0.00 | 25 | 1008.9 |
| 20260903222721 | 99 | 74 | 0.9 | 2.6 | 0.00 | 0.00 | 0.00 | 27 | 1008.9 |
| 20260903222220 | 96 | 294 | 0.0 | 3.5 | 0.00 | 0.00 | 0.00 | 26 | 1009.1 |
| 20260903221715 | 94 | 0 | 0.0 | 2.6 | 0.00 | 0.00 | 0.00 | 30 | 1009.1 |
| 20260903221214 | 93 | 16 | 0.0 | 3.5 | 0.00 | 0.00 | 0.00 | 35 | 1009.4 |
| 20260903220712 | 93 | 0 | 0.0 | 0.0 | 0.00 | 0.00 | 0.00 | 33 | 1009.2 |
| 20260903220208 | 93 | 270 | 0.0 | 4.3 | 0.00 | 0.00 | 0.00 | 31 | 1009.4 |
| 20260903215706 | 92 | 298 | 2.6 | 4.3 | 0.00 | 0.00 | 0.00 | 31 | 1009.4 |
| 20260903215202 | 91 | 295 | 1.7 | 3.5 | 0.00 | 0.00 | 0.00 | 32 | 1009.5 |
| 20260903214700 | 91 | 300 | 0.0 | 2.6 | 0.00 | 0.00 | 0.00 | 37 | 1009.5 |
| 20260903214156 | 90 | 270 | 0.0 | 2.6 | 0.00 | 0.00 | 0.00 | 38 | 1009.7 |
| 20260903213650 | 89 | 41 | 0.0 | 4.3 | 0.00 | 0.00 | 0.00 | 40 | 1009.5 |
| 20260903213147 | 90 | 279 | 1.7 | 10.4 | 0.00 | 0.00 | 0.00 | 38 | 1009.6 |
| 20260903212642 | 89 | 197 | 7.8 | 9.6 | 0.00 | 0.00 | 0.00 | 39 | 1009.8 |
| 20260903212138 | 88 | 204 | 7.8 | 10.4 | 0.02 | 0.00 | 0.00 | 38 | 1010.0 |
| 20260903211637 | 85 | 200 | 7.8 | 11.3 | 0.02 | 0.00 | 0.00 | 49 | 1010.0 |
| 20260903211135 | 85 | 195 | 5.2 | 13.0 | 0.00 | 0.00 | 0.00 | 50 | 1009.9 |
| 20260903210630 | 89 | 186 | 6.1 | 13.0 | 0.00 | 0.00 | 0.00 | 36 | 1009.9 |
| 20260903210125 | 86 | 177 | 7.0 | 11.3 | 0.00 | 0.00 | 0.00 | 48 | 1010.0 |
| 20260903205619 | 92 | 240 | 2.6 | 10.4 | 0.00 | 0.00 | 0.00 | 39 | 1009.9 |
| 20260903205113 | 95 | 245 | 5.2 | 10.4 | 0.00 | 0.00 | 0.00 | 30 | 1009.8 |
| 20260903204609 | 96 | 242 | 4.3 | 10.4 | 0.00 | 0.00 | 0.00 | 28 | 1009.9 |
| 20260903204104 | 97 | 239 | 7.8 | 13.0 | 0.00 | 0.00 | 0.00 | 27 | 1009.9 |
| 20260903203559 | 100 | 289 | 0.0 | 2.6 | 0.00 | 0.00 | 0.00 | 24 | 1009.8 |
| 20260903203054 | 99 | 66 | 1.7 | 3.5 | 0.00 | 0.00 | 0.00 | 24 | 1009.7 |
| 20260903202550 | 100 | 352 | 1.7 | 3.5 | 0.00 | 0.00 | 0.00 | 23 | 1009.7 |
| 20260903202045 | 100 | 300 | 0.0 | 1.7 | 0.00 | 0.00 | 0.00 | 24 | 1009.7 |
| 20260903201539 | 100 | 157 | 1.7 | 1.7 | 0.00 | 0.00 | 0.00 | 23 | 1009.8 |
| 20260903201038 | 100 | 345 | 0.0 | 1.7 | 0.00 | 0.00 | 0.00 | 23 | 1010.0 |
| 20260903200533 | 99 | 275 | 0.0 | 3.5 | 0.00 | 0.00 | 0.00 | 24 | 1010.1 |
| 20260903200029 | 99 | 195 | 0.9 | 5.2 | 0.00 | 0.00 | 0.00 | 24 | 1010.0 |
| 20260903195525 | 101 | 34 | 1.7 | 1.7 | 0.00 | 0.00 | 0.00 | 23 | 1009.9 |
| 20260903195020 | 101 | 221 | 5.2 | 5.2 | 0.00 | 0.00 | 0.00 | 24 | 1009.9 |
| 20260903194515 | 100 | 228 | 6.1 | 7.0 | 0.00 | 0.00 | 0.00 | 25 | 1010.0 |
| 20260903194010 | 98 | 206 | 2.6 | 4.3 | 0.00 | 0.00 | 0.00 | 26 | 1010.2 |
| 20260903193507 | 98 | 188 | 1.7 | 4.3 | 0.00 | 0.00 | 0.00 | 26 | 1010.3 |
| 20260903193001 | 100 | 206 | 1.7 | 4.3 | 0.00 | 0.00 | 0.00 | 25 | 1010.2 |
| 20260903192458 | 101 | 256 | 2.6 | 7.8 | 0.00 | 0.00 | 0.00 | 24 | 1010.3 |
| 20260903191953 | 99 | 139 | 0.0 | 4.3 | 0.00 | 0.00 | 0.00 | 24 | 1010.3 |
| 20260903191449 | 99 | 295 | 2.6 | 5.2 | 0.00 | 0.00 | 0.00 | 25 | 1010.7 |
| 20260903190948 | 99 | 180 | 1.7 | 2.6 | 0.00 | 0.00 | 0.00 | 25 | 1010.6 |
| 20260903190443 | 100 | 157 | 2.6 | 4.3 | 0.00 | 0.00 | 0.00 | 24 | 1010.6 |
| 20260903185943 | 100 | 23 | 2.6 | 3.5 | 0.00 | 0.00 | 0.00 | 24 | 1010.9 |
| 20260903185439 | 100 | 180 | 0.0 | 4.3 | 0.00 | 0.00 | 0.00 | 24 | 1010.9 |
| 20260903184938 | 99 | 158 | 1.7 | 4.3 | 0.00 | 0.00 | 0.00 | 24 | 1011.2 |
| 20260903184436 | 100 | 174 | 2.6 | 3.5 | 0.00 | 0.00 | 0.00 | 24 | 1011.1 |
| 20260903183930 | 97 | 165 | 3.5 | 5.2 | 0.00 | 0.00 | 0.00 | 25 | 1011.2 |
| 20260903183425 | 97 | 155 | 2.6 | 4.3 | 0.00 | 0.00 | 0.00 | 25 | 1011.4 |
| 20260903182924 | 98 | 176 | 1.7 | 3.5 | 0.00 | 0.00 | 0.00 | 25 | 1011.4 |
| 20260903182423 | 98 | 233 | 0.0 | 4.3 | 0.00 | 0.00 | 0.00 | 26 | 1011.9 |
| 20260903181918 | 98 | 192 | 1.7 | 2.6 | 0.00 | 0.00 | 0.00 | 26 | 1011.9 |
| 20260903181413 | 99 | 178 | 2.6 | 5.2 | 0.00 | 0.00 | 0.00 | 25 | 1011.5 |
| 20260903180912 | 99 | 237 | 5.2 | 5.2 | 0.00 | 0.00 | 0.00 | 25 | 1011.9 |
| 20260903180407 | 98 | 345 | 0.9 | 1.7 | 0.00 | 0.00 | 0.00 | 25 | 1012.1 |
| 20260903175906 | 98 | 317 | 5.2 | 5.2 | 0.00 | 0.00 | 0.00 | 25 | 1012.0 |
| 20260903175401 | 99 | 281 | 1.7 | 6.1 | 0.00 | 0.00 | 0.00 | 25 | 1012.1 |
| 20260903174855 | 98 | 12 | 3.5 | 4.3 | 0.00 | 0.00 | 0.00 | 26 | 1012.1 |
| 20260903174351 | 98 | 196 | 1.7 | 3.5 | 0.00 | 0.00 | 0.00 | 26 | 1012.2 |
| 20260903173844 | 98 | 86 | 1.7 | 6.1 | 0.00 | 0.00 | 0.00 | 26 | 1012.0 |
| 20260903173340 | 99 | 26 | 1.7 | 2.6 | 0.00 | 0.00 | 0.00 | 26 | 1012.4 |
| 20260903172836 | 97 | 187 | 0.0 | 4.3 | 0.00 | 0.00 | 0.00 | 26 | 1012.2 |
| 20260903172330 | 99 | 139 | 2.6 | 6.1 | 0.00 | 0.00 | 0.00 | 26 | 1012.3 |
| 20260903171826 | 98 | 276 | 1.7 | 5.2 | 0.00 | 0.00 | 0.00 | 26 | 1012.4 |
| 20260903171321 | 99 | 117 | 0.0 | 6.1 | 0.00 | 0.00 | 0.00 | 27 | 1012.3 |
| 20260903170820 | 99 | 240 | 0.0 | 2.6 | 0.00 | 0.00 | 0.00 | 26 | 1012.4 |
| 20260903170316 | 99 | 353 | 0.0 | 3.5 | 0.00 | 0.00 | 0.00 | 26 | 1012.4 |
| 20260903165814 | 97 | 6 | 3.5 | 4.3 | 0.00 | 0.00 | 0.00 | 27 | 1012.3 |
| 20260903165308 | 97 | 186 | 0.9 | 3.5 | 0.00 | 0.00 | 0.00 | 28 | 1012.4 |
| 20260903164803 | 97 | 105 | 0.9 | 7.8 | 0.00 | 0.00 | 0.00 | 28 | 1012.5 |
| 20260903164259 | 98 | 297 | 3.5 | 3.5 | 0.00 | 0.00 | 0.00 | 27 | 1012.5 |
| 20260903163757 | 96 | 246 | 0.0 | 5.2 | 0.00 | 0.00 | 0.00 | 29 | 1012.6 |
| 20260903163254 | 96 | 345 | 0.0 | 2.6 | 0.00 | 0.00 | 0.00 | 30 | 1012.6 |
| 20260903162751 | 95 | 288 | 2.6 | 5.2 | 0.00 | 0.00 | 0.00 | 29 | 1012.6 |
| 20260903162246 | 95 | 229 | 2.6 | 4.3 | 0.00 | 0.00 | 0.00 | 31 | 1012.6 |
| 20260903161742 | 95 | 270 | 0.0 | 2.6 | 0.00 | 0.00 | 0.00 | 31 | 1012.7 |
| 20260903161237 | 93 | 221 | 2.6 | 2.6 | 0.00 | 0.00 | 0.00 | 32 | 1012.6 |
| 20260903160733 | 92 | 331 | 1.7 | 4.3 | 0.00 | 0.00 | 0.00 | 33 | 1012.5 |
| 20260903160231 | 93 | 0 | 0.0 | 2.6 | 0.00 | 0.00 | 0.00 | 33 | 1012.6 |
| 20260903155730 | 92 | 276 | 1.7 | 2.6 | 0.00 | 0.00 | 0.00 | 33 | 1012.6 |
| 20260903155225 | 93 | 156 | 0.0 | 1.7 | 0.00 | 0.00 | 0.00 | 33 | 1012.7 |
| 20260903154721 | 91 | 192 | 1.7 | 3.5 | 0.00 | 0.00 | 0.00 | 36 | 1012.9 |
| 20260903154217 | 90 | 206 | 2.6 | 3.5 | 0.00 | 0.00 | 0.00 | 36 | 1012.6 |
| 20260903153712 | 90 | 180 | 0.9 | 2.6 | 0.00 | 0.00 | 0.00 | 37 | 1012.7 |
| 20260903153208 | 89 | 160 | 0.9 | 2.6 | 0.00 | 0.00 | 0.00 | 37 | 1012.7 |
| 20260903152704 | 88 | 156 | 1.7 | 1.7 | 0.00 | 0.00 | 0.00 | 38 | 1012.6 |
| 20260903152200 | 88 | 157 | 0.0 | 1.7 | 0.00 | 0.00 | 0.00 | 39 | 1012.7 |
| 20260903151659 | 85 | 152 | 0.0 | 1.7 | 0.00 | 0.00 | 0.00 | 41 | 1012.7 |
| 20260903151154 | 84 | 188 | 0.0 | 1.7 | 0.00 | 0.00 | 0.00 | 43 | 1012.9 |
| 20260903150654 | 84 | 177 | 1.7 | 1.7 | 0.00 | 0.00 | 0.00 | 44 | 1012.9 |
| 20260903150150 | 83 | 151 | 1.7 | 2.6 | 0.00 | 0.00 | 0.00 | 45 | 1012.6 |
| 20260903145644 | 84 | 176 | 1.7 | 1.7 | 0.00 | 0.00 | 0.00 | 43 | 1012.6 |
| 20260903145139 | 85 | 144 | 1.7 | 1.7 | 0.00 | 0.00 | 0.00 | 43 | 1013.0 |
| 20260903144637 | 85 | 164 | 1.7 | 1.7 | 0.00 | 0.00 | 0.00 | 41 | 1012.6 |
| 20260903144134 | 86 | 199 | 2.6 | 2.6 | 0.00 | 0.00 | 0.00 | 40 | 1012.9 |
| 20260903143630 | 86 | 114 | 0.9 | 1.7 | 0.00 | 0.00 | 0.00 | 41 | 1013.1 |
| 20260903143125 | 84 | 180 | 0.0 | 1.7 | 0.00 | 0.00 | 0.00 | 43 | 1013.0 |
| 20260903142621 | 85 | 157 | 0.0 | 1.7 | 0.00 | 0.00 | 0.00 | 42 | 1013.0 |
| 20260903142117 | 85 | 75 | 0.0 | 1.7 | 0.00 | 0.00 | 0.00 | 42 | 1013.1 |
| 20260903141613 | 83 | 81 | 0.0 | 0.0 | 0.00 | 0.00 | 0.00 | 44 | 1013.1 |
| 20260903141108 | 82 | 77 | 0.0 | 0.9 | 0.00 | 0.00 | 0.00 | 45 | 1013.0 |
| 20260903140604 | 80 | 69 | 0.0 | 0.9 | 0.00 | 0.00 | 0.00 | 47 | 1012.9 |
| 20260903140059 | 82 | 8 | 0.0 | 0.0 | 0.00 | 0.00 | 0.00 | 45 | 1013.1 |
| 20260903135555 | 80 | 0 | 0.0 | 0.9 | 0.00 | 0.00 | 0.00 | 46 | 1013.1 |
| 20260903135055 | 78 | 32 | 1.7 | 2.6 | 0.00 | 0.00 | 0.00 | 49 | 1013.0 |
| 20260903134554 | 78 | 32 | 0.0 | 1.7 | 0.00 | 0.00 | 0.00 | 48 | 1012.9 |
| 20260903134050 | 78 | 32 | 0.0 | 2.6 | 0.00 | 0.00 | 0.00 | 49 | 1013.1 |
| 20260903133547 | 77 | 14 | 0.9 | 1.7 | 0.00 | 0.00 | 0.00 | 51 | 1012.9 |
| 20260903133043 | 76 | 23 | 1.7 | 1.7 | 0.00 | 0.00 | 0.00 | 53 | 1012.9 |
| 20260903132538 | 74 | 343 | 1.7 | 2.6 | 0.00 | 0.00 | 0.00 | 54 | 1012.7 |
| 20260903132033 | 75 | 90 | 0.0 | 0.0 | 0.00 | 0.00 | 0.00 | 53 | 1012.7 |
| 20260903131532 | 74 | 90 | 0.0 | 1.7 | 0.00 | 0.00 | 0.00 | 53 | 1012.7 |
| 20260903131032 | 73 | 8 | 0.0 | 0.0 | 0.00 | 0.00 | 0.00 | 55 | 1012.6 |
| 20260903130526 | 71 | 26 | 0.0 | 1.7 | 0.00 | 0.00 | 0.00 | 56 | 1012.6 |
| 20260903130021 | 71 | 60 | 0.9 | 1.7 | 0.00 | 0.00 | 0.00 | 56 | 1012.6 |
| 20260903125519 | 71 | 8 | 0.0 | 0.0 | 0.00 | 0.00 | 0.00 | 56 | 1012.5 |
| 20260903125015 | 70 | 8 | 0.0 | 0.9 | 0.00 | 0.00 | 0.00 | 57 | 1012.4 |
| 20260903124509 | 71 | 344 | 0.0 | 1.7 | 0.00 | 0.00 | 0.00 | 59 | 1012.5 |
| 20260903124009 | 70 | 337 | 0.0 | 1.7 | 0.00 | 0.00 | 0.00 | 58 | 1012.9 |
| 20260903123504 | 72 | 168 | 0.0 | 0.0 | 0.00 | 0.00 | 0.00 | 58 | 1012.3 |
| 20260903123001 | 72 | 168 | 0.0 | 0.9 | 0.00 | 0.00 | 0.00 | 58 | 1012.4 |
| 20260903122456 | 71 | 334 | 0.0 | 0.9 | 0.00 | 0.00 | 0.00 | 57 | 1012.5 |
| 20260903121956 | 72 | 106 | 0.0 | 0.9 | 0.00 | 0.00 | 0.00 | 58 | 1012.3 |
| 20260903121450 | 73 | 5 | 0.0 | 0.0 | 0.00 | 0.00 | 0.00 | 59 | 1012.4 |
| 20260903120947 | 72 | 5 | 0.0 | 0.0 | 0.00 | 0.00 | 0.00 | 58 | 1012.4 |
| 20260903120445 | 72 | 5 | 0.0 | 0.0 | 0.00 | 0.00 | 0.00 | 58 | 1012.2 |
| 20260903115943 | 72 | 21 | 1.7 | 1.7 | 0.00 | 0.00 | 0.00 | 57 | 1012.2 |
| 20260903115438 | 73 | 180 | 0.0 | 0.0 | 0.00 | 0.00 | 0.00 | 57 | 1012.2 |
| 20260903114933 | 73 | 180 | 0.0 | 0.0 | 0.00 | 0.00 | 0.00 | 57 | 1012.1 |
| 20260903114428 | 73 | 180 | 0.0 | 0.0 | 0.00 | 0.00 | 0.00 | 56 | 1011.9 |
| 20260903113924 | 73 | 180 | 0.0 | 0.0 | 0.00 | 0.00 | 0.00 | 56 | 1012.1 |
| 20260903113419 | 74 | 198 | 0.0 | 0.0 | 0.00 | 0.00 | 0.00 | 55 | 1012.0 |
| 20260903112915 | 74 | 236 | 0.0 | 1.7 | 0.00 | 0.00 | 0.00 | 55 | 1012.0 |
| 20260903112410 | 74 | 180 | 0.0 | 1.7 | 0.00 | 0.00 | 0.00 | 55 | 1011.6 |
| 20260903111909 | 75 | 173 | 0.0 | 0.9 | 0.00 | 0.00 | 0.00 | 54 | 1011.8 |
| 20260903111409 | 75 | 195 | 0.0 | 0.9 | 0.00 | 0.00 | 0.00 | 54 | 1011.8 |
| 20260903110906 | 75 | 180 | 0.0 | 0.9 | 0.00 | 0.00 | 0.00 | 54 | 1011.8 |
| 20260903110401 | 75 | 198 | 0.0 | 0.9 | 0.00 | 0.00 | 0.00 | 53 | 1011.6 |
| 20260903105855 | 76 | 171 | 1.7 | 2.6 | 0.00 | 0.00 | 0.00 | 53 | 1011.5 |
| 20260903105351 | 76 | 145 | 0.9 | 3.5 | 0.00 | 0.00 | 0.00 | 52 | 1011.4 |
| 20260903104850 | 75 | 166 | 1.7 | 2.6 | 0.00 | 0.00 | 0.00 | 53 | 1011.5 |
| 20260903104345 | 75 | 166 | 1.7 | 2.6 | 0.00 | 0.00 | 0.00 | 53 | 1011.5 |
| 20260903103842 | 75 | 165 | 1.7 | 2.6 | 0.00 | 0.00 | 0.00 | 53 | 1011.8 |
| 20260903103338 | 75 | 152 | 2.6 | 2.6 | 0.00 | 0.00 | 0.00 | 53 | 1012.0 |
| 20260903102833 | 76 | 180 | 0.0 | 1.7 | 0.00 | 0.00 | 0.00 | 53 | 1011.8 |
| 20260903102332 | 75 | 157 | 0.9 | 1.7 | 0.00 | 0.00 | 0.00 | 53 | 1011.9 |
| 20260903101827 | 76 | 151 | 0.9 | 2.6 | 0.00 | 0.00 | 0.00 | 53 | 1012.0 |
| 20260903101322 | 76 | 177 | 2.6 | 3.5 | 0.00 | 0.00 | 0.00 | 52 | 1011.8 |
| 20260903100818 | 77 | 144 | 1.7 | 3.5 | 0.00 | 0.00 | 0.00 | 52 | 1012.1 |
| 20260903100317 | 77 | 187 | 3.5 | 3.5 | 0.00 | 0.00 | 0.00 | 52 | 1012.1 |
| 20260903095815 | 77 | 243 | 0.9 | 2.6 | 0.00 | 0.00 | 0.00 | 51 | 1012.1 |
| 20260903095309 | 77 | 157 | 0.0 | 1.7 | 0.00 | 0.00 | 0.00 | 51 | 1012.3 |
| 20260903094804 | 77 | 180 | 0.9 | 1.7 | 0.00 | 0.00 | 0.00 | 51 | 1012.1 |
| 20260903094259 | 77 | 246 | 0.0 | 1.7 | 0.00 | 0.00 | 0.00 | 52 | 1012.1 |
| 20260903093755 | 76 | 279 | 0.0 | 0.0 | 0.00 | 0.00 | 0.00 | 52 | 1012.0 |
| 20260903093250 | 76 | 279 | 0.0 | 0.0 | 0.00 | 0.00 | 0.00 | 51 | 1012.0 |
| 20260903092744 | 76 | 254 | 0.0 | 0.9 | 0.00 | 0.00 | 0.00 | 50 | 1011.9 |
| 20260903092239 | 76 | 90 | 0.0 | 0.0 | 0.00 | 0.00 | 0.00 | 50 | 1011.9 |
| 20260903091738 | 76 | 90 | 0.0 | 0.0 | 0.00 | 0.00 | 0.00 | 50 | 1011.9 |
| 20260903091232 | 77 | 165 | 0.0 | 0.0 | 0.00 | 0.00 | 0.00 | 49 | 1011.8 |
| 20260903090728 | 77 | 165 | 0.0 | 0.0 | 0.00 | 0.00 | 0.00 | 49 | 1011.8 |
| 20260903090226 | 77 | 165 | 0.0 | 0.0 | 0.00 | 0.00 | 0.00 | 49 | 1011.8 |
| 20260903085725 | 77 | 165 | 0.0 | 0.9 | 0.00 | 0.00 | 0.00 | 48 | 1011.8 |
| 20260903085221 | 77 | 225 | 0.0 | 2.6 | 0.00 | 0.00 | 0.00 | 48 | 1012.0 |
| 20260903084718 | 77 | 195 | 0.0 | 0.9 | 0.00 | 0.00 | 0.00 | 48 | 1011.6 |
| 20260903084214 | 77 | 270 | 0.0 | 0.9 | 0.00 | 0.00 | 0.00 | 48 | 1011.9 |
| 20260903083709 | 75 | 341 | 0.0 | 1.7 | 0.00 | 0.00 | 0.00 | 49 | 1011.9 |
| 20260903083203 | 75 | 0 | 0.0 | 1.7 | 0.00 | 0.00 | 0.00 | 49 | 1011.6 |
| 20260903082657 | 76 | 6 | 0.9 | 1.7 | 0.00 | 0.00 | 0.00 | 48 | 1011.6 |
| 20260903082154 | 78 | 8 | 0.0 | 0.0 | 0.00 | 0.00 | 0.00 | 47 | 1012.0 |
| 20260903081648 | 78 | 165 | 0.0 | 0.0 | 0.00 | 0.00 | 0.00 | 47 | 1011.6 |
| 20260903081144 | 78 | 198 | 0.0 | 1.7 | 0.00 | 0.00 | 0.00 | 46 | 1012.0 |
| 20260903080640 | 79 | 206 | 0.9 | 2.6 | 0.00 | 0.00 | 0.00 | 46 | 1011.8 |
| 20260903080137 | 79 | 165 | 0.9 | 2.6 | 0.00 | 0.00 | 0.00 | 45 | 1011.9 |
| 20260903075631 | 79 | 154 | 1.7 | 2.6 | 0.00 | 0.00 | 0.00 | 45 | 1011.8 |
| 20260903075126 | 79 | 160 | 0.0 | 2.6 | 0.00 | 0.00 | 0.00 | 45 | 1011.8 |
| 20260903074625 | 79 | 173 | 0.9 | 2.6 | 0.00 | 0.00 | 0.00 | 45 | 1011.8 |
| 20260903074120 | 79 | 186 | 0.0 | 2.6 | 0.00 | 0.00 | 0.00 | 45 | 1011.9 |
| 20260903073616 | 79 | 161 | 1.7 | 2.6 | 0.00 | 0.00 | 0.00 | 45 | 1011.9 |
| 20260903073111 | 79 | 203 | 0.9 | 1.7 | 0.00 | 0.00 | 0.00 | 45 | 1011.9 |
| 20260903072607 | 78 | 84 | 0.0 | 1.7 | 0.00 | 0.00 | 0.00 | 46 | 1011.8 |
| 20260903072103 | 78 | 127 | 0.0 | 1.7 | 0.00 | 0.00 | 0.00 | 46 | 1012.0 |
| 20260903071559 | 78 | 168 | 0.0 | 0.9 | 0.00 | 0.00 | 0.00 | 45 | 1012.1 |
| 20260903071054 | 80 | 169 | 1.7 | 2.6 | 0.00 | 0.00 | 0.00 | 46 | 1011.8 |
| 20260903070553 | 82 | 188 | 0.0 | 0.9 | 0.00 | 0.00 | 0.00 | 44 | 1011.8 |
| 20260903070050 | 83 | 188 | 0.0 | 0.9 | 0.00 | 0.00 | 0.00 | 43 | 1011.8 |
| 20260903065548 | 83 | 154 | 0.9 | 1.7 | 0.00 | 0.00 | 0.00 | 42 | 1011.9 |
| 20260903065043 | 84 | 173 | 0.0 | 0.9 | 0.00 | 0.00 | 0.00 | 42 | 1011.9 |
| 20260903064543 | 83 | 210 | 1.7 | 1.7 | 0.00 | 0.00 | 0.00 | 43 | 1011.9 |
| 20260903064038 | 83 | 183 | 2.6 | 2.6 | 0.00 | 0.00 | 0.00 | 43 | 1012.0 |
| 20260903063533 | 83 | 180 | 0.0 | 2.6 | 0.00 | 0.00 | 0.00 | 43 | 1012.1 |
| 20260903063029 | 82 | 237 | 0.0 | 1.7 | 0.00 | 0.00 | 0.00 | 44 | 1011.9 |
| 20260903062524 | 81 | 186 | 0.0 | 1.7 | 0.00 | 0.00 | 0.00 | 45 | 1011.9 |
| 20260903062019 | 81 | 180 | 0.9 | 2.6 | 0.00 | 0.00 | 0.00 | 45 | 1012.0 |
| 20260903061515 | 82 | 106 | 0.0 | 1.7 | 0.00 | 0.00 | 0.00 | 43 | 1011.8 |
| 20260903061009 | 82 | 160 | 0.0 | 0.9 | 0.00 | 0.00 | 0.00 | 43 | 1012.1 |
| 20260903060503 | 82 | 157 | 0.0 | 0.0 | 0.00 | 0.00 | 0.00 | 44 | 1011.9 |
| 20260903060004 | 82 | 157 | 0.0 | 0.0 | 0.00 | 0.00 | 0.00 | 43 | 1012.3 |
| 20260903055501 | 82 | 157 | 0.0 | 0.9 | 0.00 | 0.00 | 0.00 | 43 | 1012.1 |
| 20260903055000 | 83 | 176 | 0.0 | 1.7 | 0.00 | 0.00 | 0.00 | 43 | 1012.2 |
| 20260903054455 | 83 | 188 | 0.0 | 1.7 | 0.00 | 0.00 | 0.00 | 42 | 1012.0 |
| 20260903053951 | 83 | 194 | 0.9 | 1.7 | 0.00 | 0.00 | 0.00 | 42 | 1012.0 |
| 20260903053450 | 83 | 229 | 0.0 | 2.6 | 0.00 | 0.00 | 0.00 | 43 | 1012.3 |
| 20260903052948 | 82 | 228 | 1.7 | 2.6 | 0.00 | 0.00 | 0.00 | 43 | 1012.2 |
| 20260903052443 | 82 | 207 | 0.0 | 2.6 | 0.00 | 0.00 | 0.00 | 43 | 1012.0 |
| 20260903051938 | 83 | 216 | 1.7 | 2.6 | 0.00 | 0.00 | 0.00 | 42 | 1011.9 |
| 20260903051433 | 84 | 239 | 1.7 | 2.6 | 0.00 | 0.00 | 0.00 | 41 | 1012.3 |
| 20260903050929 | 84 | 212 | 1.7 | 2.6 | 0.00 | 0.00 | 0.00 | 41 | 1012.1 |
| 20260903050428 | 84 | 250 | 1.7 | 2.6 | 0.00 | 0.00 | 0.00 | 42 | 1012.3 |
| 20260903045922 | 83 | 216 | 0.0 | 1.7 | 0.00 | 0.00 | 0.00 | 42 | 1012.5 |
| 20260903045418 | 83 | 192 | 0.9 | 1.7 | 0.00 | 0.00 | 0.00 | 41 | 1012.3 |
| 20260903044915 | 83 | 199 | 0.0 | 1.7 | 0.00 | 0.00 | 0.00 | 41 | 1012.4 |
| 20260903044415 | 84 | 338 | 2.6 | 3.5 | 0.00 | 0.00 | 0.00 | 40 | 1012.3 |
| 20260903043912 | 85 | 195 | 0.9 | 1.7 | 0.00 | 0.00 | 0.00 | 40 | 1012.1 |
| 20260903043407 | 85 | 157 | 0.0 | 1.7 | 0.00 | 0.00 | 0.00 | 39 | 1012.2 |
| 20260903042905 | 85 | 209 | 0.9 | 1.7 | 0.00 | 0.00 | 0.00 | 39 | 1012.1 |
| 20260903042401 | 84 | 240 | 0.0 | 1.7 | 0.00 | 0.00 | 0.00 | 39 | 1012.0 |
| 20260903041856 | 84 | 246 | 0.0 | 1.7 | 0.00 | 0.00 | 0.00 | 40 | 1012.1 |
| 20260903041352 | 84 | 243 | 0.0 | 0.9 | 0.00 | 0.00 | 0.00 | 41 | 1012.2 |
| 20260903040848 | 84 | 235 | 0.0 | 1.7 | 0.00 | 0.00 | 0.00 | 41 | 1012.2 |
| 20260903040347 | 84 | 240 | 0.0 | 0.9 | 0.00 | 0.00 | 0.00 | 41 | 1012.0 |
| 20260903035843 | 83 | 213 | 1.7 | 2.6 | 0.00 | 0.00 | 0.00 | 42 | 1011.9 |
| 20260903035338 | 84 | 233 | 0.0 | 1.7 | 0.00 | 0.00 | 0.00 | 44 | 1011.9 |
| 20260903034834 | 84 | 254 | 0.9 | 1.7 | 0.00 | 0.00 | 0.00 | 44 | 1012.1 |
| 20260903034329 | 85 | 243 | 0.0 | 1.7 | 0.00 | 0.00 | 0.00 | 42 | 1012.0 |
| 20260903033824 | 84 | 195 | 0.0 | 0.9 | 0.00 | 0.00 | 0.00 | 42 | 1011.8 |
| 20260903033319 | 85 | 237 | 0.0 | 1.7 | 0.00 | 0.00 | 0.00 | 41 | 1012.0 |
| 20260903032818 | 85 | 249 | 0.0 | 1.7 | 0.00 | 0.00 | 0.00 | 40 | 1012.0 |
| 20260903032315 | 85 | 240 | 0.0 | 1.7 | 0.00 | 0.00 | 0.00 | 39 | 1011.9 |
| 20260903031810 | 86 | 187 | 0.9 | 0.9 | 0.00 | 0.00 | 0.00 | 38 | 1011.8 |
| 20260903031309 | 86 | 180 | 0.0 | 0.9 | 0.00 | 0.00 | 0.00 | 37 | 1011.6 |
| 20260903030805 | 86 | 209 | 0.0 | 2.6 | 0.00 | 0.00 | 0.00 | 37 | 1011.5 |
| 20260903030301 | 87 | 148 | 0.0 | 1.7 | 0.00 | 0.00 | 0.00 | 36 | 1011.6 |
| 20260903025756 | 87 | 165 | 0.9 | 4.3 | 0.00 | 0.00 | 0.00 | 36 | 1011.5 |
| 20260903025252 | 88 | 161 | 2.6 | 4.3 | 0.00 | 0.00 | 0.00 | 36 | 1011.3 |
| 20260903024746 | 88 | 177 | 2.6 | 3.5 | 0.00 | 0.00 | 0.00 | 35 | 1011.4 |
| 20260903024245 | 88 | 131 | 1.7 | 1.7 | 0.00 | 0.00 | 0.00 | 35 | 1011.4 |
| 20260903023741 | 88 | 152 | 1.7 | 2.6 | 0.00 | 0.00 | 0.00 | 35 | 1011.1 |
| 20260903023236 | 88 | 146 | 1.7 | 3.5 | 0.00 | 0.00 | 0.00 | 35 | 1010.9 |
| 20260903022731 | 88 | 180 | 1.7 | 3.5 | 0.00 | 0.00 | 0.00 | 35 | 1011.0 |
| 20260903022230 | 89 | 166 | 0.9 | 3.5 | 0.00 | 0.00 | 0.00 | 35 | 1010.8 |
| 20260903021725 | 89 | 168 | 1.7 | 3.5 | 0.00 | 0.00 | 0.00 | 35 | 1010.9 |
| 20260903021220 | 89 | 188 | 1.7 | 3.5 | 0.00 | 0.00 | 0.00 | 35 | 1010.8 |
| 20260903020720 | 89 | 158 | 0.0 | 2.6 | 0.00 | 0.00 | 0.00 | 35 | 1011.0 |
| 20260903020214 | 89 | 180 | 0.0 | 2.6 | 0.00 | 0.00 | 0.00 | 35 | 1010.9 |
| 20260903015709 | 90 | 180 | 0.9 | 2.6 | 0.00 | 0.00 | 0.00 | 34 | 1010.8 |
| 20260903015205 | 90 | 180 | 0.0 | 2.6 | 0.00 | 0.00 | 0.00 | 34 | 1010.6 |
| 20260903014701 | 90 | 180 | 0.9 | 1.7 | 0.00 | 0.00 | 0.00 | 34 | 1010.8 |
| 20260903014200 | 90 | 192 | 0.9 | 1.7 | 0.00 | 0.00 | 0.00 | 34 | 1010.9 |
| 20260903013655 | 91 | 163 | 1.7 | 2.6 | 0.00 | 0.00 | 0.00 | 33 | 1010.6 |
| 20260903013154 | 91 | 195 | 1.7 | 4.3 | 0.00 | 0.00 | 0.00 | 33 | 1010.6 |
| 20260903012653 | 91 | 180 | 1.7 | 3.5 | 0.00 | 0.00 | 0.00 | 33 | 1010.6 |
| 20260903012152 | 91 | 172 | 0.0 | 2.6 | 0.00 | 0.00 | 0.00 | 32 | 1010.4 |
| 20260903011653 | 92 | 188 | 0.9 | 5.2 | 0.00 | 0.00 | 0.00 | 32 | 1010.6 |
| 20260903011152 | 93 | 180 | 1.7 | 3.5 | 0.00 | 0.00 | 0.00 | 31 | 1010.4 |
| 20260903010647 | 93 | 167 | 2.6 | 4.3 | 0.00 | 0.00 | 0.00 | 31 | 1010.4 |
| 20260903010146 | 93 | 169 | 2.6 | 5.2 | 0.00 | 0.00 | 0.00 | 31 | 1010.1 |
| 20260903005641 | 94 | 160 | 0.9 | 4.3 | 0.00 | 0.00 | 0.00 | 31 | 1010.6 |
| 20260903005136 | 95 | 176 | 3.5 | 7.0 | 0.00 | 0.00 | 0.00 | 30 | 1010.3 |
| 20260903004631 | 95 | 196 | 2.6 | 7.0 | 0.00 | 0.00 | 0.00 | 29 | 1010.4 |
| 20260903004126 | 95 | 177 | 2.6 | 6.1 | 0.00 | 0.00 | 0.00 | 29 | 1010.4 |
| 20260903003622 | 96 | 172 | 2.6 | 7.0 | 0.00 | 0.00 | 0.00 | 29 | 1010.6 |
| 20260903003117 | 96 | 164 | 6.1 | 8.7 | 0.00 | 0.00 | 0.00 | 29 | 1010.8 |
| 20260903002612 | 96 | 189 | 3.5 | 7.0 | 0.00 | 0.00 | 0.00 | 29 | 1010.6 |
| 20260903002106 | 95 | 184 | 3.5 | 6.1 | 0.00 | 0.00 | 0.00 | 29 | 1010.4 |
| 20260903001601 | 95 | 193 | 2.6 | 6.1 | 0.00 | 0.00 | 0.00 | 30 | 1010.6 |
| 20260903001055 | 95 | 159 | 1.7 | 4.3 | 0.00 | 0.00 | 0.00 | 29 | 1010.6 |
| 20260903000551 | 95 | 171 | 5.2 | 5.2 | 0.00 | 0.00 | 0.00 | 28 | 1010.8 |
| 20260903000049 | 96 | 193 | 4.3 | 8.7 | 0.00 | 0.00 | 0.00 | 28 | 1010.4 |
| 20260902235544 | 96 | 184 | 1.7 | 5.2 | 0.00 | 0.00 | 0.00 | 27 | 1010.8 |
| 20260902235039 | 96 | 177 | 2.6 | 8.7 | 0.00 | 0.00 | 0.00 | 27 | 1010.9 |
| 20260902234538 | 97 | 173 | 5.2 | 7.8 | 0.00 | 0.00 | 0.00 | 28 | 1010.7 |
| 20260902234037 | 96 | 182 | 2.6 | 6.1 | 0.00 | 0.00 | 0.00 | 26 | 1010.6 |
| 20260902233532 | 97 | 150 | 2.6 | 3.5 | 0.00 | 0.00 | 0.00 | 27 | 1010.7 |
| 20260902233027 | 96 | 174 | 6.1 | 7.8 | 0.00 | 0.00 | 0.00 | 25 | 1010.7 |
| 20260902232526 | 96 | 174 | 6.1 | 7.0 | 0.00 | 0.00 | 0.00 | 25 | 1010.3 |
| 20260902232020 | 97 | 190 | 0.0 | 7.8 | 0.00 | 0.00 | 0.00 | 24 | 1010.6 |
| 20260902231515 | 97 | 234 | 3.5 | 3.5 | 0.00 | 0.00 | 0.00 | 25 | 1010.7 |